W5GED Weather Reports


time (UTC)temp
C
wind
direction
speed
KPH
gust
KPH
rain 1hr
cm
rain 24hr
cm
rain mn
cm
humidity
%
barometer
mb
20260510034610 -17 205 3.2 3.2 0.00 1.60 1.60
20260510033645 -17 145 3.2 4.8 0.00 1.60 1.60
20260510032526 -17 134 3.2 3.2 0.00 1.60 1.60
20260510031520 -17 119 8.0 9.7 0.00 1.60 1.60
20260510021523 -17 115 11.3 19.3 0.00 1.60 1.60
20260510021136 -17 99 14.5 22.5 0.00 1.60 1.60
20260510010527 -17 158 3.2 4.8 0.00 1.60 1.60
20260510010127 21 150 3.2 8.0 0.36 1.60 1.60 93 1008.3
20260510004521 20 119 4.8 11.3 1.40 1.60 1.60 92 1008.2
20260510003521 20 172 3.2 9.7 1.45 1.60 1.60 90 1008.2
20260510002521 21 184 6.4 9.7 1.60 1.60 1.60 90 1008.6
20260510001522 21 121 4.8 6.4 1.60 1.60 1.60 87 1008.4
20260510000522 20 148 6.4 29.0 1.60 1.60 1.60 89 1008.2
20260509235519 22 83 11.3 37.0 1.27 1.27 1.27 85 1009.4
20260509234546 25 173 6.4 8.0 0.23 0.23 0.23 80 1008.7
20260509233519 28 167 4.8 11.3 0.15 0.15 0.15 70 1008.3
20260509232539 30 76 3.2 9.7 0.00 0.00 0.00 67 1007.7
20260509231519 31 175 3.2 6.4 0.00 0.00 0.00 64 1007.8
20260509230519 31 201 1.6 4.8 0.00 0.00 0.00 62 1007.6
20260509225539 31 192 1.6 4.8 0.00 0.00 0.00 63 1007.5
20260509224519 31 73 1.6 8.0 0.00 0.00 0.00 63 1007.4
20260509223520 31 70 3.2 6.4 0.00 0.00 0.00 62 1007.5
20260509222540 32 75 4.8 11.3 0.00 0.00 0.00 61 1007.4
20260509221537 33 233 1.6 6.4 0.00 0.00 0.00 60 1007.2
20260509220517 33 294 1.6 6.4 0.00 0.00 0.00 58 1007.3
20260509215520 32 222 1.6 8.0 0.00 0.00 0.00 59 1007.3
20260509214520 32 313 3.2 6.4 0.00 0.00 0.00 61 1007.3
20260509213517 32 13 3.2 8.0 0.00 0.00 0.00 61 1007.3
20260509212518 32 275 3.2 6.4 0.00 0.00 0.00 61 1007.4
20260509211518 32 272 1.6 4.8 0.00 0.00 0.00 62 1007.4
20260509210538 32 30 3.2 8.0 0.00 0.00 0.00 62 1007.5
20260509205518 32 7 3.2 12.9 0.00 0.00 0.00 63 1007.8
20260509204521 31 287 4.8 11.3 0.00 0.00 0.00 64 1008.0
20260509203518 31 301 3.2 8.0 0.00 0.00 0.00 63 1008.0
20260509202518 31 1 3.2 8.0 0.00 0.00 0.00 65 1008.1
20260509201518 32 33 4.8 9.7 0.00 0.00 0.00 65 1008.2
20260509200519 32 301 3.2 8.0 0.00 0.00 0.00 61 1008.3
20260509195519 31 301 4.8 11.3 0.00 0.00 0.00 64 1008.4
20260509194519 32 21 4.8 12.9 0.00 0.00 0.00 62 1008.4
20260509193519 31 303 4.8 16.1 0.00 0.00 0.00 60 1008.5
20260509192519 30 7 3.2 9.7 0.00 0.00 0.00 65 1008.6
20260509191519 31 265 4.8 12.9 0.00 0.00 0.00 64 1008.6
20260509190519 31 4 3.2 8.0 0.00 0.00 0.00 62 1008.7
20260509185516 30 76 4.8 9.7 0.00 0.00 0.00 65 1008.8
20260509184519 30 164 3.2 9.7 0.00 0.05 0.00 66 1008.9
20260509183532 30 222 3.2 3.2 0.00 0.05 0.00 66 1009.1
20260509182532 30 194 3.2 4.8 0.00 0.05 0.00 67 1009.3
20260509181532 29 211 3.2 4.8 0.00 0.05 0.00 69 1009.3
20260509180532 29 165 3.2 8.0 0.00 0.05 0.00 69 1009.5
20260509175517 30 131 3.2 6.4 0.00 0.05 0.00 71 1009.7
20260509174517 29 58 1.6 4.8 0.00 0.05 0.00 71 1009.8
20260509173520 29 161 3.2 8.0 0.00 0.05 0.00 73 1010.0
20260509172517 29 180 3.2 8.0 0.00 0.05 0.00 73 1010.1
20260509171520 28 158 4.8 9.7 0.00 0.05 0.00 75 1009.9
20260509170520 28 192 3.2 9.7 0.00 0.05 0.00 75 1010.3
20260509165521 27 179 4.8 9.7 0.00 0.05 0.00 78 1010.4
20260509164533 27 21 3.2 6.4 0.00 0.05 0.00 80 1010.3
20260509163558 27 5 3.2 4.8 0.00 0.05 0.00 82 1010.3
20260509162518 26 24 1.6 3.2 0.00 0.05 0.00 84 1010.3
20260509161518 26 5 0.0 1.6 0.00 0.05 0.00 84 1010.3
20260509160518 26 22 3.2 4.8 0.00 0.05 0.00 84 1010.3
20260509155518 26 195 1.6 3.2 0.00 0.05 0.00 85 1010.4
20260509154518 26 51 1.6 3.2 0.00 0.05 0.00 87 1010.3
20260509153518 26 63 1.6 3.2 0.00 0.05 0.00 87 1010.3
20260509152519 25 39 3.2 3.2 0.00 0.05 0.00 88 1010.2
20260509151519 25 25 1.6 4.8 0.00 0.05 0.00 88 1010.3
20260509150519 25 99 1.6 4.8 0.00 0.05 0.00 88 1010.1
20260509145519 25 173 1.6 3.2 0.00 0.05 0.00 89 1010.0
20260509144519 25 78 1.6 3.2 0.00 0.05 0.00 91 1009.9
20260509143519 25 60 1.6 3.2 0.00 0.05 0.00 91 1009.7
20260509142540 24 60 1.6 3.2 0.00 0.05 0.00 92 1009.6
20260509141520 24 183 0.0 1.6 0.00 0.05 0.00 93 1009.4
20260509140519 24 333 0.0 3.2 0.00 0.05 0.00 94 1009.3
20260509135520 24 168 1.6 3.2 0.00 0.05 0.00 94 1009.3
20260509134520 24 136 0.0 3.2 0.00 0.05 0.00 94 1009.8
20260509133520 24 177 1.6 4.8 0.00 0.05 0.00 94 1010.2
20260509132540 24 170 0.0 3.2 0.00 0.05 0.00 95 1010.2
20260509131520 23 159 1.6 3.2 0.00 0.05 0.00 96 1010.3
20260509130521 23 145 0.0 3.2 0.00 0.05 0.00 96 1010.6
20260509125520 23 240 1.6 3.2 0.00 0.05 0.00 97 1010.6
20260509124521 23 63 1.6 3.2 0.00 0.05 0.00 97 1010.0
20260509123521 23 144 1.6 3.2 0.00 0.05 0.00 97 1010.2
20260509122521 23 188 1.6 3.2 0.00 0.05 0.00 97 1010.2
20260509121521 23 184 1.6 3.2 0.00 0.05 0.00 97 1010.3
20260509120521 23 190 0.0 1.6 0.00 0.05 0.00 97 1010.2
20260509115521 23 192 1.6 3.2 0.00 0.05 0.00 97 1010.0
20260509114521 23 114 0.0 1.6 0.00 0.05 0.00 97 1010.0
20260509113522 23 162 0.0 1.6 0.00 0.05 0.00 97 1010.1
20260509112522 23 5 1.6 3.2 0.00 0.05 0.00 97 1010.1
20260509111522 23 336 1.6 3.2 0.00 0.05 0.00 96 1010.0
20260509110522 23 40 1.6 3.2 0.00 0.05 0.00 96 1009.8
20260509105522 23 70 0.0 1.6 0.00 0.05 0.00 96 1009.6
20260509104522 23 25 1.6 3.2 0.00 0.05 0.00 96 1009.4
20260509103523 23 252 0.0 1.6 0.00 0.05 0.00 96 1009.3
20260509102523 23 155 0.0 1.6 0.00 0.05 0.00 96 1009.4
20260509101523 23 180 1.6 3.2 0.00 0.05 0.00 96 1009.5
20260509100523 23 164 0.0 1.6 0.00 0.05 0.00 96 1009.3
20260509095523 23 195 0.0 1.6 0.00 0.05 0.00 96 1009.2
20260509094523 23 17 0.0 1.6 0.00 0.05 0.00 96 1009.1
20260509093543 23 30 0.0 1.6 0.00 0.05 0.00 96 1009.0
20260509092524 23 49 1.6 3.2 0.00 0.05 0.00 96 1009.0
20260509091524 23 44 1.6 1.6 0.00 0.05 0.00 96 1009.4
20260509090523 23 220 0.0 1.6 0.00 0.05 0.00 96 1009.5
20260509085524 23 11 1.6 3.2 0.00 0.05 0.00 96 1009.5
20260509084544 23 75 0.0 0.0 0.00 0.05 0.00 96 1009.6
20260509083544 23 0.0 0.0 0.00 0.05 0.00 96 1009.4
20260509082524 23 291 0.0 1.6 0.00 0.05 0.00 96 1009.3
20260509081524 23 50 1.6 3.2 0.00 0.05 0.00 96 1009.2
20260509080524 23 48 1.6 3.2 0.00 0.05 0.00 96 1009.3
20260509075544 23 75 1.6 3.2 0.00 0.05 0.00 96 1009.3
20260509074525 23 74 1.6 3.2 0.00 0.05 0.00 96 1009.3
20260509073525 23 55 1.6 6.4 0.00 0.05 0.00 96 1009.0
20260509072525 23 114 1.6 3.2 0.00 0.05 0.00 95 1009.1
20260509071525 23 29 0.0 1.6 0.00 0.05 0.00 95 1009.4
20260509070605 23 181 1.6 3.2 0.00 0.05 0.00 95 1009.6
20260509065526 23 101 0.0 1.6 0.00 0.05 0.00 95 1009.7
20260509064525 23 146 1.6 3.2 0.00 0.05 0.00 95 1009.7
20260509063526 23 76 1.6 3.2 0.00 0.05 0.00 95 1009.8
20260509062526 23 102 1.6 4.8 0.00 0.05 0.00 95 1009.8
20260509061526 23 24 0.0 1.6 0.00 0.05 0.00 95 1010.0
20260509060526 23 88 1.6 3.2 0.00 0.05 0.00 95 1009.9
20260509055526 23 93 1.6 4.8 0.00 0.05 0.00 95 1009.9
20260509054527 23 74 1.6 4.8 0.00 0.05 0.00 94 1010.0
20260509053526 23 86 3.2 4.8 0.00 0.05 0.00 94 1009.9
20260509052526 23 95 1.6 4.8 0.00 0.05 0.00 94 1010.0
20260509051527 23 82 3.2 6.4 0.00 0.05 0.00 94 1009.9
20260509050527 23 85 3.2 4.8 0.00 0.05 0.00 94 1010.0
20260509045527 23 71 3.2 6.4 0.00 0.05 0.05 94 1009.9
20260509044527 23 85 3.2 4.8 0.00 0.05 0.05 94 1010.0
20260509043527 23 63 3.2 4.8 0.00 0.05 0.05 94 1010.1
20260509042528 23 62 1.6 6.4 0.00 0.05 0.05 94 1010.1